This is the latest recevied weather packets stored in our database for station/object IZ1GCT. If no packets are shown the sender has not sent any weather packets the latest 10 day(s).
| Time | Temp. | Humidity | Pressure | Rain* | Wind** | Luminosity | Snow |
|---|---|---|---|---|---|---|---|
| 1777896059 | 15° C | 71% | 1021.4 hPa | 0.25 mm | - | - | - |
| 1777895758 | 15° C | 71% | 1021.4 hPa | 0.25 mm | - | - | - |
| 1777895460 | 14.44° C | 71% | 1021.4 hPa | 0.25 mm | - | - | - |
| 1777895159 | 15° C | 72% | 1021.3 hPa | 0.25 mm | - | - | - |
| 1777894860 | 14.44° C | 72% | 1021.3 hPa | 0.25 mm | - | - | - |
| 1777894560 | 14.44° C | 72% | 1021.2 hPa | 0.25 mm | - | - | - |
| 1777894259 | 14.44° C | 71% | 1021.3 hPa | 0.25 mm | - | - | - |
| 1777893959 | 15° C | 70% | 1021.4 hPa | 0.25 mm | - | - | - |
| 1777893660 | 15° C | 67% | 1021.4 hPa | 0.25 mm | - | - | - |
| 1777893359 | 15.56° C | 69% | 1021.5 hPa | 0.25 mm | - | - | - |
| 1777893059 | 15.56° C | 67% | 1021.5 hPa | 0.25 mm | - | - | - |
| 1777892760 | 15.56° C | 63% | 1021.5 hPa | 0 mm | - | - | - |
| 1777892459 | 15.56° C | 63% | 1021.4 hPa | 0 mm | - | - | - |
| 1777892159 | 15.56° C | 66% | 1021.4 hPa | 0 mm | - | - | - |
| 1777891860 | 15.56° C | 66% | 1021.4 hPa | 0 mm | - | - | - |
| 1777891559 | 15.56° C | 66% | 1021.4 hPa | 0 mm | - | - | - |
| 1777891259 | 15.56° C | 67% | 1021.5 hPa | 0 mm | - | - | - |
| 1777890959 | 15° C | 65% | 1021.6 hPa | 0 mm | - | - | - |
| 1777890659 | 15° C | 64% | 1021.5 hPa | 0 mm | - | - | - |
| 1777890359 | 15.56° C | 66% | 1021.5 hPa | 0 mm | - | - | - |
| 1777890059 | 15.56° C | 66% | 1021.4 hPa | 0 mm | - | - | - |
| 1777889759 | 15.56° C | 65% | 1021.4 hPa | 0 mm | - | - | - |
| 1777889458 | 15.56° C | 64% | 1021.2 hPa | 0 mm | - | - | - |
| 1777889160 | 15.56° C | 63% | 1021.3 hPa | 0 mm | - | - | - |
| 1777888859 | 15° C | 63% | 1021.3 hPa | 0 mm | - | - | - |
* Rain latest hour (hover to see other rain measurements)
** Current wind speed in m/s (hover to see current wind gust speed)